Вернуться в каталог

STARLINK-36716

АктивенСвязьSSO
NORAD 67699·PAYLOAD·🇺🇸 United States

Запущен Feb 7, 2026 с Vandenberg Space Force Base

Loading…

Ближайшие Пролёты (ближайшие 24 часа)

TLE

СвежийSource: CelesTrak SupGP

Эпоха: Sep 15, 2026, 03:45 UTC

1 67699C 26025G   26258.15673611 -.00012877  00000+0 -39969-3 0  2588
2 67699  97.2851   8.0849 0000960  91.5561 269.6408 15.33449402    13

Отслеживайте STARLINK-36716 в реальном времени с AllMySat

Download on the App Store